E1521 Weather Reports


Display with metric or nautical units.
time (UTC)temp
F
wind
direction
speed
MPH
gust
MPH
rain 1hr
in
rain 24hr
in
rain mn
in
humidity
%
barometer
mb
20191018231631 82 302 3.0 3.0 0.00 0.00 0.00 24 1000.1
20191018231131 82 314 2.0 3.0 0.00 0.00 0.00 24 1000.0
20191018230631 82 319 3.0 4.0 0.00 0.00 0.00 24 1000.0
20191018230131 82 311 2.0 4.0 0.00 0.00 0.00 23 1000.1
20191018225631 82 302 0.0 2.0 0.00 0.00 0.00 23 1000.0
20191018225131 82 283 2.0 3.0 0.00 0.00 0.00 24 1000.0
20191018224631 81 284 4.0 7.0 0.00 0.00 0.00 23 1000.2
20191018224131 81 51 3.0 8.0 0.00 0.00 0.00 23 1000.1
20191018223631 82 295 2.0 7.0 0.00 0.00 0.00 23 1000.1
20191018223131 82 291 3.0 4.0 0.00 0.00 0.00 23 1000.1
20191018222631 81 301 4.0 9.0 0.00 0.00 0.00 23 1000.1
20191018222131 82 302 3.0 5.0 0.00 0.00 0.00 22 1000.1
20191018221631 82 307 6.0 6.0 0.00 0.00 0.00 23 1000.1
20191018221131 82 339 3.0 4.0 0.00 0.00 0.00 24 1000.0
20191018220631 82 297 2.0 5.0 0.00 0.00 0.00 23 1000.0
20191018220131 82 305 1.0 6.0 0.00 0.00 0.00 25 999.9
20191018215631 82 302 5.0 5.0 0.00 0.00 0.00 24 1000.0
20191018215131 82 302 4.0 9.0 0.00 0.00 0.00 25 999.9
20191018214631 81 339 3.0 5.0 0.00 0.00 0.00 24 999.8
20191018214131 82 276 6.0 7.0 0.00 0.00 0.00 24 999.9
20191018213632 81 344 1.0 5.0 0.00 0.00 0.00 24 999.8
20191018213131 81 314 1.0 6.0 0.00 0.00 0.00 25 999.8
20191018212631 81 300 2.0 6.0 0.00 0.00 0.00 25 999.9
20191018212131 81 229 1.0 8.0 0.00 0.00 0.00 25 999.7
20191018211631 81 229 1.0 3.0 0.00 0.00 0.00 25 999.7
20191018211131 81 266 3.0 6.0 0.00 0.00 0.00 23 999.8
20191018210631 81 257 1.0 6.0 0.00 0.00 0.00 23 999.7
20191018210131 81 260 2.0 4.0 0.00 0.00 0.00 23 999.7
20191018205631 81 316 0.0 5.0 0.00 0.00 0.00 22 999.8
20191018205131 81 280 5.0 8.0 0.00 0.00 0.00 22 999.7
20191018204631 81 314 2.0 6.0 0.00 0.00 0.00 22 999.7
20191018204131 81 245 0.0 6.0 0.00 0.00 0.00 23 999.6
20191018203631 81 318 2.0 6.0 0.00 0.00 0.00 22 999.7
20191018203131 81 293 3.0 6.0 0.00 0.00 0.00 22 999.6
20191018202631 81 337 2.0 5.0 0.00 0.00 0.00 23 999.6
20191018202131 81 285 2.0 5.0 0.00 0.00 0.00 23 999.6
20191018201631 81 244 5.0 10.0 0.00 0.00 0.00 21 999.8
20191018201131 81 9 3.0 5.0 0.00 0.00 0.00 22 999.7
20191018200631 81 325 1.0 7.0 0.00 0.00 0.00 21 999.8
20191018200131 81 288 5.0 5.0 0.00 0.00 0.00 21 999.8
20191018195631 81 291 5.0 6.0 0.00 0.00 0.00 22 999.9
20191018195131 81 252 4.0 6.0 0.00 0.00 0.00 21 1000.0
20191018194631 81 303 4.0 7.0 0.00 0.00 0.00 22 999.9
20191018194131 80 258 0.0 3.0 0.00 0.00 0.00 23 1000.0
20191018193631 81 335 0.0 5.0 0.00 0.00 0.00 23 1000.1
20191018193131 81 245 4.0 4.0 0.00 0.00 0.00 23 1000.1
20191018192631 81 162 0.0 5.0 0.00 0.00 0.00 23 1000.2
20191018192131 81 302 1.0 4.0 0.00 0.00 0.00 25 1000.3
20191018191631 81 232 2.0 6.0 0.00 0.00 0.00 26 1000.4
20191018191131 80 350 1.0 7.0 0.00 0.00 0.00 28 1000.4
20191018190631 80 239 0.0 5.0 0.00 0.00 0.00 31 1000.4
20191018190131 80 250 0.0 6.0 0.00 0.00 0.00 30 1000.5
20191018185631 80 207 2.0 4.0 0.00 0.00 0.00 32 1000.5
20191018185131 80 314 0.0 1.0 0.00 0.00 0.00 31 1000.5
20191018184631 81 281 2.0 3.0 0.00 0.00 0.00 31 1000.5
20191018184131 80 192 1.0 2.0 0.00 0.00 0.00 33 1000.5
20191018183631 79 217 2.0 3.0 0.00 0.00 0.00 33 1000.6
20191018183131 79 13 1.0 4.0 0.00 0.00 0.00 34 1000.6
20191018182631 80 274 1.0 5.0 0.00 0.00 0.00 34 1000.7
20191018182131 79 252 2.0 2.0 0.00 0.00 0.00 37 1000.7
20191018181631 78 173 0.0 4.0 0.00 0.00 0.00 38 1000.7
20191018181131 78 276 0.0 4.0 0.00 0.00 0.00 38 1000.7
20191018180631 78 266 0.0 3.0 0.00 0.00 0.00 39 1000.7
20191018180131 78 264 0.0 5.0 0.00 0.00 0.00 39 1000.7
20191018175631 78 276 0.0 5.0 0.00 0.00 0.00 39 1000.7
20191018175131 78 289 0.0 3.0 0.00 0.00 0.00 39 1000.7
20191018174631 78 280 0.0 5.0 0.00 0.00 0.00 40 1000.6
20191018174131 78 278 3.0 4.0 0.00 0.00 0.00 40 1000.6
20191018173631 78 284 0.0 4.0 0.00 0.00 0.00 40 1000.6
20191018173131 78 259 0.0 2.0 0.00 0.00 0.00 43 1000.6
20191018172631 78 182 0.0 2.0 0.00 0.00 0.00 44 1000.7
20191018172131 77 195 0.0 3.0 0.00 0.00 0.00 45 1000.7
20191018171631 77 294 2.0 3.0 0.00 0.00 0.00 45 1000.7
20191018171131 77 288 5.0 6.0 0.00 0.00 0.00 47 1000.7
20191018170631 77 203 0.0 4.0 0.00 0.00 0.00 47 1000.6
20191018170131 77 274 3.0 3.0 0.00 0.00 0.00 47 1000.7
20191018165631 77 252 0.0 4.0 0.00 0.00 0.00 48 1000.6
20191018165131 77 210 1.0 3.0 0.00 0.00 0.00 48 1000.6
20191018164631 77 248 3.0 3.0 0.00 0.00 0.00 49 1000.6
20191018164131 77 119 0.0 3.0 0.00 0.00 0.00 49 1000.5
20191018163631 76 192 0.0 3.0 0.00 0.00 0.00 48 1000.5
20191018163131 76 229 0.0 1.0 0.00 0.00 0.00 48 1000.5
20191018162631 75 325 0.0 4.0 0.00 0.00 0.00 48 1000.4
20191018162131 76 284 0.0 3.0 0.00 0.00 0.00 49 1000.4
20191018161631 76 276 1.0 2.0 0.00 0.00 0.00 46 1000.3
20191018161131 76 115 2.0 2.0 0.00 0.00 0.00 45 1000.3
20191018160631 75 67 0.0 0.0 0.00 0.00 0.00 45 1000.2
20191018160131 75 67 0.0 2.0 0.00 0.00 0.00 46 1000.2
20191018155631 74 58 0.0 1.0 0.00 0.00 0.00 45 1000.2
20191018155131 75 10 0.0 0.0 0.00 0.00 0.00 45 1000.1
20191018154631 74 99 0.0 0.0 0.00 0.00 0.00 45 1000.1
20191018154131 74 132 0.0 0.0 0.00 0.00 0.00 45 1000.0
20191018153631 73 127 0.0 0.0 0.00 0.00 0.00 47 999.9
20191018153131 72 77 0.0 2.0 0.00 0.00 0.00 47 1000.0
20191018152631 72 77 0.0 1.0 0.00 0.00 0.00 47 1000.0
20191018152131 72 65 0.0 2.0 0.00 0.00 0.00 47 999.9
20191018151631 72 64 0.0 1.0 0.00 0.00 0.00 46 999.9
20191018151131 72 318 0.0 0.0 0.00 0.00 0.00 47 999.9
20191018150631 72 134 0.0 0.0 0.00 0.00 0.00 47 999.7
20191018150131 71 134 0.0 0.0 0.00 0.00 0.00 48 999.6
20191018145631 71 134 0.0 0.0 0.00 0.00 0.00 50 999.5
20191018145131 70 134 0.0 1.0 0.00 0.00 0.00 50 999.3
20191018144631 69 127 0.0 1.0 0.00 0.00 0.00 50 999.3
20191018144131 68 350 0.0 0.0 0.00 0.00 0.00 52 999.2
20191018143631 67 350 0.0 0.0 0.00 0.00 0.00 55 999.2
20191018143131 66 349 0.0 0.0 0.00 0.00 0.00 53 999.1
20191018142631 66 273 0.0 0.0 0.00 0.00 0.00 53 999.0
20191018142131 63 127 0.0 0.0 0.00 0.00 0.00 52 998.9
20191018141631 63 127 0.0 0.0 0.00 0.00 0.00 52 998.7
20191018141131 63 127 0.0 0.0 0.00 0.00 0.00 52 998.7
20191018140631 63 127 0.0 0.0 0.00 0.00 0.00 52 998.6
20191018140131 63 127 0.0 0.0 0.00 0.00 0.00 52 998.5
20191018135631 63 127 0.0 0.0 0.00 0.00 0.00 52 998.3
20191018135131 63 127 0.0 0.0 0.00 0.00 0.00 52 998.2
20191018134631 63 127 0.0 0.0 0.00 0.00 0.00 52 998.1
20191018134131 63 127 0.0 0.0 0.00 0.00 0.00 52 998.1
20191018133631 63 127 0.0 0.0 0.00 0.00 0.00 52 998.1
20191018133131 63 127 0.0 0.0 0.00 0.00 0.00 52 998.1
20191018132631 63 127 0.0 0.0 0.00 0.00 0.00 52 998.0
20191018132131 63 127 0.0 0.0 0.00 0.00 0.00 52 998.0
20191018131631 63 127 0.0 0.0 0.00 0.00 0.00 52 998.1
20191018131131 63 127 0.0 0.0 0.00 0.00 0.00 52 998.0
20191018130631 63 127 0.0 0.0 0.00 0.00 0.00 52 998.0
20191018130131 63 127 0.0 0.0 0.00 0.00 0.00 52 998.0
20191018125631 63 127 0.0 0.0 0.00 0.00 0.00 52 997.8
20191018125131 63 127 0.0 0.0 0.00 0.00 0.00 52 997.7
20191018124631 63 127 0.0 0.0 0.00 0.00 0.00 52 997.7
20191018124131 63 127 0.0 0.0 0.00 0.00 0.00 52 997.6
20191018123631 63 127 0.0 0.0 0.00 0.00 0.00 52 997.6
20191018123131 63 127 0.0 0.0 0.00 0.00 0.00 52 997.6
20191018122631 63 127 0.0 0.0 0.00 0.00 0.00 52 997.6
20191018122131 63 127 0.0 0.0 0.00 0.00 0.00 52 997.5
20191018121631 63 127 0.0 0.0 0.00 0.00 0.00 52 997.5
20191018121131 63 127 0.0 0.0 0.00 0.00 0.00 52 997.5
20191018120631 63 127 0.0 0.0 0.00 0.00 0.00 52 997.5
20191018120131 63 127 0.0 0.0 0.00 0.00 0.00 52 997.5
20191018115631 63 127 0.0 0.0 0.00 0.00 0.00 52 997.5
20191018115131 63 127 0.0 0.0 0.00 0.00 0.00 52 997.5
20191018114631 63 127 0.0 0.0 0.00 0.00 0.00 52 997.6
20191018114131 63 127 0.0 0.0 0.00 0.00 0.00 52 997.6
20191018113631 63 127 0.0 0.0 0.00 0.00 0.00 52 997.5
20191018113131 63 127 0.0 0.0 0.00 0.00 0.00 52 997.3
20191018112631 63 127 0.0 0.0 0.00 0.00 0.00 52 997.2
20191018112131 63 127 0.0 0.0 0.00 0.00 0.00 52 997.2
20191018111631 63 127 0.0 0.0 0.00 0.00 0.00 52 997.2
20191018111131 63 127 0.0 0.0 0.00 0.00 0.00 52 997.3
20191018110631 63 127 0.0 0.0 0.00 0.00 0.00 52 997.3
20191018110131 63 127 0.0 0.0 0.00 0.00 0.00 52 997.3
20191018105631 63 127 0.0 0.0 0.00 0.00 0.00 52 997.3
20191018105131 63 127 0.0 0.0 0.00 0.00 0.00 52 997.2
20191018104631 63 127 0.0 0.0 0.00 0.00 0.00 52 997.1
20191018104131 63 127 0.0 0.0 0.00 0.00 0.00 52 997.1
20191018103631 63 127 0.0 0.0 0.00 0.00 0.00 52 997.1
20191018103131 63 127 0.0 0.0 0.00 0.00 0.00 52 997.1
20191018102631 64 127 0.0 0.0 0.00 0.00 0.00 51 997.1
20191018102131 64 127 0.0 0.0 0.00 0.00 0.00 51 997.1
20191018101631 64 127 0.0 0.0 0.00 0.00 0.00 51 997.1
20191018101131 65 127 0.0 0.0 0.00 0.00 0.00 50 997.0
20191018100631 65 127 0.0 0.0 0.00 0.00 0.00 50 997.1
20191018100131 65 132 0.0 0.0 0.00 0.00 0.00 49 997.0
20191018095631 65 132 0.0 0.0 0.00 0.00 0.00 48 997.1
20191018095131 66 132 0.0 0.0 0.00 0.00 0.00 48 997.1
20191018094631 66 132 0.0 0.0 0.00 0.00 0.00 47 997.1
20191018094131 66 132 0.0 0.0 0.00 0.00 0.00 47 997.1
20191018093631 66 138 0.0 0.0 0.00 0.00 0.00 47 997.1
20191018093131 66 139 0.0 0.0 0.00 0.00 0.00 47 997.1
20191018092631 66 131 0.0 0.0 0.00 0.00 0.00 47 997.1
20191018092131 66 129 0.0 0.0 0.00 0.00 0.00 46 997.1
20191018091631 66 129 0.0 0.0 0.00 0.00 0.00 46 997.0
20191018091131 66 129 0.0 0.0 0.00 0.00 0.00 46 997.0
20191018090631 66 130 0.0 0.0 0.00 0.00 0.00 47 997.1
20191018090131 66 130 0.0 0.0 0.00 0.00 0.00 48 997.2
20191018085631 66 130 0.0 0.0 0.00 0.00 0.00 48 997.2
20191018085131 66 129 0.0 0.0 0.00 0.00 0.00 48 997.2
20191018084631 66 130 0.0 0.0 0.00 0.00 0.00 48 997.1
20191018084131 66 129 0.0 0.0 0.00 0.00 0.00 49 997.1
20191018083631 66 129 0.0 0.0 0.00 0.00 0.00 48 997.0
20191018083131 66 129 0.0 0.0 0.00 0.00 0.00 49 997.1
20191018082631 66 129 0.0 0.0 0.00 0.00 0.00 49 997.2
20191018082131 66 129 0.0 0.0 0.00 0.00 0.00 48 997.1
20191018081631 66 130 0.0 0.0 0.00 0.00 0.00 48 997.1
20191018081131 67 129 0.0 0.0 0.00 0.00 0.00 48 997.1
20191018080631 67 129 0.0 0.0 0.00 0.00 0.00 46 996.9
20191018080131 67 130 0.0 0.0 0.00 0.00 0.00 45 996.9
20191018075631 68 129 0.0 0.0 0.00 0.00 0.00 45 996.8
20191018075131 68 130 0.0 0.0 0.00 0.00 0.00 44 996.8
20191018074631 69 129 0.0 0.0 0.00 0.00 0.00 42 996.8
20191018074131 69 129 0.0 0.0 0.00 0.00 0.00 42 996.8
20191018073631 69 129 0.0 0.0 0.00 0.00 0.00 41 996.8
20191018073131 69 129 0.0 0.0 0.00 0.00 0.00 41 996.7
20191018072631 69 130 0.0 0.0 0.00 0.00 0.00 41 996.7
20191018072131 69 130 0.0 0.0 0.00 0.00 0.00 41 996.7
20191018071631 70 129 0.0 0.0 0.00 0.00 0.00 40 996.6
20191018071131 70 130 0.0 0.0 0.00 0.00 0.00 39 996.6
20191018070631 71 129 0.0 0.0 0.00 0.00 0.00 39 996.6
20191018070131 71 129 0.0 0.0 0.00 0.00 0.00 38 996.6
20191018065631 72 129 0.0 0.0 0.00 0.00 0.00 37 996.6
20191018065131 72 129 0.0 0.0 0.00 0.00 0.00 36 996.6
20191018064631 73 134 0.0 0.0 0.00 0.00 0.00 34 996.5
20191018064131 74 163 0.0 0.0 0.00 0.00 0.00 34 996.4
20191018063631 74 163 0.0 0.0 0.00 0.00 0.00 33 996.4
20191018063131 75 165 0.0 1.0 0.00 0.00 0.00 32 996.4
20191018062631 75 135 0.0 0.0 0.00 0.00 0.00 32 996.4
20191018062131 75 186 0.0 0.0 0.00 0.00 0.00 31 996.5
20191018061631 75 139 0.0 1.0 0.00 0.00 0.00 31 996.4
20191018061131 76 125 0.0 1.0 0.00 0.00 0.00 31 996.4
20191018060631 76 177 0.0 1.0 0.00 0.00 0.00 31 996.4
20191018060131 76 158 0.0 0.0 0.00 0.00 0.00 31 996.4
20191018055631 76 186 0.0 1.0 0.00 0.00 0.00 32 996.3
20191018055131 77 173 0.0 1.0 0.00 0.00 0.00 32 996.3
20191018054631 77 135 0.0 2.0 0.00 0.00 0.00 33 996.3
20191018054131 77 128 0.0 4.0 0.00 0.00 0.00 33 996.2
20191018053631 77 219 0.0 5.0 0.00 0.00 0.00 33 996.2
20191018053131 78 209 0.0 3.0 0.00 0.00 0.00 33 996.1
20191018052631 78 127 2.0 5.0 0.00 0.00 0.00 32 996.1
20191018052131 78 212 4.0 4.0 0.00 0.00 0.00 32 996.2
20191018051631 78 134 0.0 1.0 0.00 0.00 0.00 32 996.2
20191018051131 79 209 0.0 3.0 0.00 0.00 0.00 31 996.1
20191018050631 79 205 2.0 3.0 0.00 0.00 0.00 31 996.0
20191018050131 80 201 3.0 3.0 0.00 0.00 0.00 31 996.0
20191018045631 80 157 2.0 5.0 0.00 0.00 0.00 31 996.0
20191018045131 80 129 0.0 7.0 0.00 0.00 0.00 31 996.0
20191018044631 80 247 5.0 5.0 0.00 0.00 0.00 31 995.9
20191018044131 80 179 0.0 3.0 0.00 0.00 0.00 32 995.8
20191018043631 81 168 0.0 5.0 0.00 0.00 0.00 32 995.7
20191018043131 81 150 1.0 4.0 0.00 0.00 0.00 32 995.7
20191018042631 81 120 3.0 6.0 0.00 0.00 0.00 33 995.6
20191018042131 82 262 4.0 6.0 0.00 0.00 0.00 34 995.6
20191018041631 82 221 4.0 6.0 0.00 0.00 0.00 34 995.6
20191018041132 82 222 2.0 4.0 0.00 0.00 0.00 35 995.6
20191018040631 82 249 4.0 9.0 0.00 0.00 0.00 34 995.6
20191018040131 82 169 2.0 2.0 0.00 0.00 0.00 33 995.6
20191018035631 82 207 4.0 4.0 0.00 0.00 0.00 33 995.4
20191018035131 82 194 1.0 6.0 0.00 0.00 0.00 32 995.4
20191018034631 83 207 1.0 2.0 0.00 0.00 0.00 32 995.3
20191018034131 83 288 0.0 4.0 0.00 0.00 0.00 32 995.3
20191018033631 83 13 2.0 5.0 0.00 0.00 0.00 32 995.2
20191018033131 83 194 4.0 8.0 0.00 0.00 0.00 31 995.2
20191018032631 84 113 3.0 8.0 0.00 0.00 0.00 31 995.2
20191018032131 84 174 1.0 7.0 0.00 0.00 0.00 31 995.2
20191018031631 84 186 6.0 7.0 0.00 0.00 0.00 31 995.1
20191018031131 84 231 4.0 8.0 0.00 0.00 0.00 30 995.1
20191018030631 85 314 4.0 6.0 0.00 0.00 0.00 30 994.9
20191018030131 85 243 0.0 7.0 0.00 0.00 0.00 30 994.9
20191018025631 85 245 2.0 9.0 0.00 0.00 0.00 29 994.9
20191018025131 85 280 3.0 4.0 0.00 0.00 0.00 29 994.7
20191018024631 85 300 4.0 6.0 0.00 0.00 0.00 29 994.6
20191018024131 85 212 3.0 6.0 0.00 0.00 0.00 28 994.6
20191018023631 85 293 1.0 4.0 0.00 0.00 0.00 29 994.6
20191018023131 86 281 2.0 6.0 0.00 0.00 0.00 28 994.6
20191018022631 85 262 2.0 4.0 0.00 0.00 0.00 28 994.4
20191018022131 85 193 5.0 5.0 0.00 0.00 0.00 28 994.5
20191018021631 85 229 0.0 2.0 0.00 0.00 0.00 27 994.4
20191018021131 86 358 2.0 2.0 0.00 0.00 0.00 27 994.4
20191018020631 85 229 3.0 3.0 0.00 0.00 0.00 27 994.4
20191018020131 86 238 0.0 4.0 0.00 0.00 0.00 27 994.4
20191018015631 86 245 0.0 1.0 0.00 0.00 0.00 26 994.4
20191018015131 86 247 0.0 1.0 0.00 0.00 0.00 26 994.4
20191018014631 86 212 0.0 1.0 0.00 0.00 0.00 26 994.3
20191018014131 87 262 0.0 1.0 0.00 0.00 0.00 25 994.3
20191018013631 87 249 0.0 3.0 0.00 0.00 0.00 25 994.2
20191018013131 87 264 0.0 1.0 0.00 0.00 0.00 24 994.1
20191018012631 86 238 2.0 4.0 0.00 0.00 0.00 24 994.1
20191018012131 86 253 0.0 1.0 0.00 0.00 0.00 24 994.0
20191018011631 86 283 0.0 0.0 0.00 0.00 0.00 24 993.9
20191018011131 87 283 0.0 0.0 0.00 0.00 0.00 24 993.8
20191018010631 87 283 0.0 1.0 0.00 0.00 0.00 23 993.8
20191018010131 88 257 0.0 0.0 0.00 0.00 0.00 23 993.8
20191018005631 88 257 0.0 1.0 0.00 0.00 0.00 22 993.9
20191018005131 89 280 0.0 1.0 0.00 0.00 0.00 22 993.9
20191018004631 89 273 0.0 0.0 0.00 0.00 0.00 22 994.0
20191018004131 90 272 0.0 1.0 0.00 0.00 0.00 22 994.0
20191018003631 90 288 1.0 2.0 0.00 0.00 0.00 21 994.1
20191018003131 91 300 0.0 4.0 0.00 0.00 0.00 21 994.1
20191018002631 91 288 0.0 4.0 0.00 0.00 0.00 21 994.1
20191018002131 92 297 4.0 4.0 0.00 0.00 0.00 20 994.1
20191018001631 92 244 5.0 5.0 0.00 0.00 0.00 20 994.1
20191018001131 92 316 4.0 5.0 0.00 0.00 0.00 20 994.2
20191018000631 92 210 4.0 5.0 0.00 0.00 0.00 20 994.2
20191018000131 92 335 3.0 7.0 0.00 0.00 0.00 20 994.3
20191017235631 92 269 3.0 6.0 0.00 0.00 0.00 20 994.4
20191017235131 93 297 4.0 5.0 0.00 0.00 0.00 20 994.3
20191017234631 93 288 2.0 6.0 0.00 0.00 0.00 20 994.4
20191017234131 93 262 6.0 7.0 0.00 0.00 0.00 20 994.4
20191017233631 93 239 5.0 7.0 0.00 0.00 0.00 20 994.5
20191017233131 93 285 3.0 4.0 0.00 0.00 0.00 20 994.5
20191017232631 93 237 0.0 4.0 0.00 0.00 0.00 20 994.5
20191017232131 93 188 2.0 4.0 0.00 0.00 0.00 20 994.5